This demonstration page uses our WeatherBlox Daily Observations layout. Learn more.

Left ArrowRight Arrow

41.86663, -103.66717

Hourly Observations for March 13, 2021

Temp ( °F °C ) Dew Point ( °F °C ) Humidity (%) Winds ( mph kmh ) Pressure ( in mb ) Visibility ( mi km ) Precip ( " mm )
12:05 am 00:05 Cloudy with Light Rain 40 4.4 30 -1.1 68 68 SSE 6 9 30.28 1025 10 16.0934 0.001 0.001
12:19 am 00:19 Cloudy 40 4.4 31 -0.6 70 70 SE 8 13 30.28 1025 10 16.0934 0.001 0.001
12:53 am 00:53 Cloudy 40 4.4 32 0 73 73 SE 10 17 30.24 1024 10 16.0934 0.001 0.001
1:53 am 01:53 Cloudy 38 3.3 32 0 79 79 ESE 13 20 30.22 1023 10 16.0934 0 0
2:15 am 02:15 Cloudy 38 3.3 32 0 79 79 ESE 12 19 30.26 1025 10 16.0934 0 0
2:53 am 02:53 Cloudy 38 3.3 33 0.6 83 83 ESE 15 24 30.19 1023 10 16.0934 0 0
3:14 am 03:14 Cloudy 38 3.3 33 0.6 83 83 ESE 13 20 30.25 1024 10 16.0934 0 0
3:38 am 03:38 Cloudy 38 3.3 33 0.6 83 83 SE 13 20 30.26 1025 10 16.0934 0 0
3:53 am 03:53 Cloudy 38 3.3 33 0.6 83 83 SE 13 20 30.2 1023 10 16.0934 0 0
4:17 am 04:17 Cloudy 38 3.3 33 0.6 83 83 ESE 10 17 30.25 1024 10 16.0934 0 0
4:53 am 04:53 Cloudy 38 3.3 33 0.6 83 83 ESE 10 17 30.19 1022 10 16.0934 0 0
5:18 am 05:18 Cloudy 37 3 32 0 81 81 ESE 9 15 30.25 1025 10 16.0934 0 0
5:53 am 05:53 Cloudy 38 3.3 32 0 79 79 ESE 10 17 30.2 1023 10 16.0934 0 0
6:53 am 06:53 Cloudy 37 2.8 32 0 82 82 E 13 20 30.21 1023 10 16.0934 0 0
7:06 am 07:06 Cloudy 37 2.8 32 0 82 82 E 12 19 30.26 1025 10 16.0934 0 0
7:53 am 07:53 Cloudy 37 2.8 32 0 82 82 E 10 17 30.22 1023 10 16.0934 0 0
8:08 am 08:08 Cloudy 38 3.3 32 0 79 79 E 10 17 30.26 1025 10 16.0934 0 0
8:53 am 08:53 Cloudy 38 3.3 31 -0.6 76 76 SE 14 22 30.23 1024 10 16.0934 0 0
9:23 am 09:23 Cloudy 38 3.3 32 0 79 79 E 12 19 30.23 1024 10 16.0934 0 0
9:53 am 09:53 Cloudy 37 2.8 32 0 82 82 ESE 10 17 30.19 1022 9 14.48406 0 0
10:53 am 10:53 Cloudy with Light Rain 38 3.3 33 0.6 83 83 E 8 13 30.18 1022 5 8.0467 0.02 0.508
11:53 am 11:53 Cloudy with Light Rain 37 2.8 34 1.1 89 89 E 12 19 30.2 1023 1.75 2.816345 0.01 0.254
12:23 pm 12:23 Cloudy with Light Rain 36 2.2 33 0.6 89 89 E 7 11 30.24 1024 2 3.21868 0.04 1.016
12:45 pm 12:45 Cloudy with Heavy Rain 35 1.7 33 0.6 93 93 ESE 6 9 30.23 1024 1.5 2.41401 0.09 2.286
12:53 pm 12:53 Cloudy with Light Rain 35 1.7 33 0.6 93 93 ESE 9 15 30.18 1022 1.5 2.41401 0.11 2.794
1:03 pm 13:03 Cloudy with Light Rain 35 1.7 33 0.6 93 93 ESE 7 11 30.21 1023 2.5 4.02335 0.01 0.254
1:11 pm 13:11 Cloudy with Light Rain 36 2.2 33 0.6 89 89 E 9 15 30.21 1023 3 4.82802 0.01 0.254
1:48 pm 13:48 Cloudy with Light Snow 36 2 32 0 87 87 ENE 9 15 30.19 1022 2.5 4.02335 0.06 1.524
1:53 pm 13:53 Cloudy with Light Snow 35 1.7 32 0 89 89 ENE 8 13 30.15 1021 2.5 4.02335 0.06 1.524
2:13 pm 14:13 Cloudy with Rain 35 1.7 32 0 89 89 E 6 9 30.18 1022 4 6.43736 0.04 1.016
2:25 pm 14:25 Cloudy with Light Snow 34 1.1 32 0 92 92 E 6 9 30.2 1023 2.5 4.02335 0.07 1.778
2:37 pm 14:37 Cloudy with Light Snow 34 1.1 32 0 92 92 E 5 7 30.2 1023 1.25 2.011675 0.09 2.286
2:46 pm 14:46 Cloudy with Light Snow 34 1.1 32 0 92 92 E 5 7 30.2 1023 3 4.82802 0.1 2.54
2:53 pm 14:53 Cloudy with Light Snow 34 1.1 32 0 92 92 E 5 7 30.16 1021 4 6.43736 0.11 2.794
3:08 pm 15:08 Cloudy with Light Snow 34 1.1 32 0 92 92 ENE 7 11 30.19 1022 1.75 2.816345 0.01 0.254
3:23 pm 15:23 Cloudy with Light Snow 34 1.1 31 -0.6 89 89 ENE 7 11 30.19 1022 1.5 2.41401 0.04 1.016
3:53 pm 15:53 Cloudy with Light Snow 34 1.1 31 -0.6 89 89 E 7 11 30.14 1021 1.25 2.011675 0.09 2.286
4:04 pm 16:04 Cloudy with Light Snow 34 1.1 31 -0.6 89 89 ENE 8 13 30.18 1022 1.75 2.816345 0.02 0.508
4:12 pm 16:12 Cloudy with Light Snow 34 1.1 31 -0.6 89 89 ENE 8 13 30.18 1022 2.5 4.02335 0.03 0.762
4:53 pm 16:53 Cloudy with Light Snow 34 1.1 31 -0.6 89 89 ENE 15 24 30.13 1020 1.5 2.41401 0.16 4.064
5:09 pm 17:09 Cloudy with Light Snow 34 1.1 31 -0.6 89 89 ENE 12 19 30.17 1022 2.5 4.02335 0.04 1.016
5:22 pm 17:22 Cloudy with Light Snow 35 1.7 31 -0.6 85 85 NE 16 26 30.14 1021 4 6.43736 0.08 2.032
5:53 pm 17:53 Cloudy with Light Rain 36 2.2 33 0.6 89 89 ENE 17 28 30.09 1019 9 14.48406 0.13 3.302
6:53 pm 18:53 Cloudy with Light Rain 36 2 N/A N/A NE 22 35 30.09 1019 7 11.26538 0.08 2.032
7:39 pm 19:39 Cloudy with Light Rain 36 2 N/A N/A ENE 20 31 30.12 1020 10 16.0934 0.02 0.508
7:53 pm 19:53 Cloudy with Light Rain 36 2 N/A N/A ENE 22 35 30.07 1018 10 16.0934 0.02 0.508
8:53 pm 20:53 Cloudy with Heavy Rain 37 3 N/A N/A ENE 38 61 29.97 1015 3 4.82802 0.06 1.524
9:08 pm 21:08 Windy with Snow Likely 37 3 N/A N/A NE 33 54 29.95 1014 6 9.65604 0.01 0.254
9:51 pm 21:51 Cloudy 37 3 N/A N/A ENE 29 46 30.04 1017 10 16.0934 0.01 0.254
9:53 pm 21:53 Cloudy 39 4 N/A N/A ENE 28 44 30.01 1016 10 16.0934 0.01 0.254
10:37 pm 22:37 Cloudy with Light Rain 39 4 N/A N/A ENE 31 50 30.02 1017 8 12.87472 0.001 0.001
10:53 pm 22:53 Cloudy with Light Rain 39 4 N/A N/A ENE 32 52 29.99 1016 5 8.0467 0.001 0.001
11:11 pm 23:11 Cloudy with Light Rain 37 3 N/A N/A ENE 26 43 30.03 1017 6 9.65604 0.01 0.254
11:17 pm 23:17 Cloudy with Light Rain 37 3 N/A N/A ENE 32 52 30.03 1017 6 9.65604 0.01 0.254
11:32 pm 23:32 Cloudy with Light Rain 37 3 N/A N/A ENE 28 44 30.02 1017 6 9.65604 0 0
11:53 pm 23:53 Cloudy with Light Rain 37 3 N/A N/A ENE 29 46 29.97 1015 6 9.65604 0.04 1.016

Powered by AerisWeather